User: anonymous   Login
Location: State Camp
(41.2367°N, 77.7828°W)
Time: 00:24:50
(UTC-04:00)
Language:

ADEOS Rocket - Orbit

View from above orbital plane
View from above orbital plane
View from above satellite
View from above satellite

Ground track
Ground track

The orbit data is extracted from the following two-line orbital elements,

1 24279U 96046C   17295.47756615 -.00000002 +00000-0 +45544-4 0  9993
2 24279 098.7616 223.7462 0299731 324.5687 165.4305 13.47096933041100
Epoch (UTC): 22 October 2017 11:27:41
Eccentricity: 0.0299731
inclination: 98.7616°
perigee height: 859 km
apogee height: 1306 km
right ascension of ascending node: 223.7462°
argument of perigee: 324.5687°
revolutions per day: 13.47096933
mean anomaly at epoch: 165.4305°
orbit number at epoch: 4110

The dashed part of the orbit path shows where the satellite is in the earth's shadow,  

DLR